Wind_Speed
38 40 41 42 42 41 40 38 36 35 35 34 33 31 29 27 26 26 25 25 24 24 25 26 27 27 27 27 28 28 29 29 30 30 30 31 31 32 33 33 33 34 34 34 34 34 34 34 33 32 31 30 29 29 29 30 30 30 31 34 37 40 41 41 41 42 44 45 45 45 44 43 43 43 43 43 44 45 45 45 45 45 43 41 40
36 38 40 41 42 42 42 40 39 38 36 34 33 30 28 27 26 26 25 24 23 23 24 25 25 25 25 25 26 26 27 28 28 29 29 30 30 31 31 31 31 32 32 33 33 33 33 32 32 32 31 31 31 32 32 33 33 33 35 38 40 42 42 40 40 41 43 45 46 46 45 44 44 44 44 45 46 46 46 45 45 45 44 42 42
35 36 37 39 41 42 42 41 40 39 37 34 33 32 31 30 30 30 29 28 26 24 23 22 22 23 23 23 24 25 26 27 28 28 28 28 29 30 30 30 30 31 31 32 33 33 33 33 33 33 33 33 34 35 36 36 36 38 40 42 43 43 43 41 40 40 42 44 46 46 46 45 45 46 46 47 48 47 46 45 46 46 45 44 44
32 34 35 36 38 40 41 40 40 39 36 33 32 33 34 34 34 34 33 31 30 27 25 23 23 24 24 23 24 25 25 26 27 27 27 27 28 29 30 30 31 31 32 33 34 35 35 35 34 33 33 33 35 37 39 39 40 42 44 45 45 45 44 42 40 39 40 41 43 45 46 46 46 46 47 47 47 46 46 46 46 46 46 46 47
28 32 32 32 34 36 37 38 37 36 36 34 33 33 34 34 33 32 32 31 30 29 27 26 27 28 26 26 26 26 26 26 26 27 28 28 29 30 31 31 32 32 33 34 35 36 36 36 36 35 36 36 37 39 40 41 43 45 46 46 47 46 45 43 41 39 38 38 39 41 42 43 44 45 45 45 45 45 46 47 47 46 46 47 48
25 28 30 30 29 29 30 31 32 32 34 35 35 35 34 33 33 33 32 32 32 32 31 31 32 32 30 30 30 29 28 28 28 29 30 30 31 32 32 33 33 34 34 34 34 35 36 37 38 39 39 40 40 40 41 43 44 46 47 48 48 47 46 44 40 38 37 37 36 37 38 39 41 42 42 43 44 45 45 45 45 45 45 46 46
26 26 27 27 25 25 26 28 30 31 31 33 34 35 35 35 35 36 37 37 37 37 37 37 37 35 34 33 32 30 30 29 29 31 32 33 33 33 33 34 35 36 35 35 34 35 36 38 38 39 39 40 41 42 43 45 46 48 49 49 49 48 46 43 40 38 37 37 36 36 37 37 38 40 41 42 43 44 43 43 43 44 44 44 45
29 28 28 29 27 28 30 32 32 32 33 34 34 35 35 35 36 37 39 40 40 40 41 41 41 39 37 36 34 33 33 33 33 34 34 35 35 36 37 37 37 37 36 36 37 38 39 39 39 39 40 40 42 43 45 46 48 49 50 51 51 49 46 42 40 39 38 38 39 39 39 40 40 41 42 42 43 43 43 44 45 45 46 46 47
31 32 34 35 34 33 33 32 33 34 34 34 33 32 32 31 32 33 36 38 38 39 41 41 41 40 39 39 38 38 38 38 38 38 37 37 39 40 40 40 39 38 38 39 40 41 41 40 40 41 41 42 43 44 45 47 49 51 52 52 50 48 45 42 41 41 41 41 42 43 43 44 44 45 45 46 46 46 47 47 48 49 50 51 52
35 36 38 40 41 39 35 33 33 35 34 34 34 33 32 31 31 31 33 36 37 38 41 42 42 41 40 40 40 40 41 41 40 40 40 41 42 42 42 41 41 41 41 42 43 42 41 41 41 42 43 44 45 46 48 50 52 53 53 51 50 47 45 44 44 45 45 45 46 46 47 47 48 48 49 49 49 50 50 51 52 53 54 55 57
37 37 38 40 42 42 39 35 36 37 37 38 38 37 37 37 36 35 36 39 40 41 42 43 44 43 42 42 42 42 42 42 42 42 43 44 44 44 44 44 44 45 45 44 44 43 42 42 43 44 45 47 49 52 54 56 56 55 53 52 50 49 47 47 48 49 50 50 50 50 50 51 51 52 52 52 53 53 54 55 56 57 59 60 62
40 39 38 36 36 38 38 38 39 41 42 41 40 40 41 42 40 39 40 43 44 44 44 44 45 46 47 46 45 44 43 43 44 45 46 46 46 47 46 46 45 45 45 46 46 46 46 46 47 48 50 53 57 59 61 61 59 56 55 54 53 52 51 51 53 54 54 54 54 54 54 55 55 54 55 56 56 57 58 59 60 61 63 65 66
43 43 42 40 37 35 36 38 41 43 44 44 43 42 43 44 43 43 44 45 46 45 45 45 46 48 50 49 48 47 46 46 46 46 46 47 47 47 46 45 45 45 47 49 51 52 52 52 53 55 59 62 63 64 64 62 60 58 57 57 57 56 55 55 57 58 58 58 58 58 58 58 58 58 58 59 59 60 61 62 63 64 66 67 67
45 46 46 46 44 41 39 39 41 43 45 47 48 47 46 46 46 46 46 47 48 48 49 50 50 51 52 52 52 50 49 47 46 46 46 46 47 47 47 47 48 50 52 55 57 58 59 59 61 64 66 67 67 66 64 62 60 60 61 61 60 59 58 58 59 60 61 61 61 62 62 62 62 62 62 62 62 63 64 65 66 67 68 69 69
46 48 49 49 50 49 46 44 42 43 45 48 50 50 50 49 49 48 47 48 49 50 51 52 53 53 54 53 52 50 48 48 47 47 47 48 49 50 50 52 54 57 59 62 63 63 64 65 67 69 69 68 66 64 62 61 60 61 63 64 63 62 62 61 62 62 63 63 64 65 66 66 66 66 67 66 66 67 67 68 68 69 69 70 70
49 49 50 52 53 54 53 51 48 46 47 49 51 52 51 50 50 49 49 49 50 50 51 51 51 51 51 51 50 50 51 51 52 52 53 54 55 56 57 59 61 63 65 66 67 67 68 69 70 69 68 66 64 62 62 62 62 64 66 66 66 66 66 66 65 65 65 65 66 68 69 70 70 70 70 69 69 69 69 69 70 70 71 71 71
57 55 54 54 55 56 57 58 56 54 52 53 54 55 54 52 51 51 51 51 51 51 52 53 53 52 52 52 52 53 54 55 56 58 59 61 62 63 65 66 68 68 69 69 69 69 70 70 69 68 66 65 64 64 65 65 66 67 68 68 68 68 68 68 67 67 67 68 69 71 73 74 74 73 72 71 70 70 69 70 70 71 71 72 73
60 60 60 59 58 58 59 60 61 61 61 60 59 59 59 59 58 57 56 56 56 56 56 57 58 58 58 59 59 59 60 61 62 63 64 66 67 68 70 71 71 71 70 70 70 70 70 69 69 68 68 67 67 67 68 69 70 70 70 70 70 70 70 70 71 71 71 71 72 74 76 77 75 74 73 72 71 71 70 70 71 72 73 74 75
59 60 60 61 61 61 61 62 62 63 64 64 64 64 64 64 65 65 65 64 64 64 63 64 64 65 65 66 66 66 66 67 67 68 68 69 70 71 72 73 73 72 72 71 72 72 71 70 70 70 70 70 70 71 71 72 73 73 73 73 73 73 74 74 74 74 75 75 75 76 77 77 76 75 74 74 73 73 72 72 73 74 75 76 76
63 62 61 60 61 61 62 63 63 64 65 65 66 66 66 67 67 68 69 70 70 70 71 71 71 71 71 71 71 70 70 70 70 70 71 72 73 74 74 73 73 72 72 73 73 73 73 71 70 71 72 72 73 74 75 75 76 77 77 77 77 77 77 77 77 77 77 77 77 77 78 78 78 77 77 76 75 75 74 74 75 76 77 77 78
69 68 67 65 64 63 63 63 64 65 65 66 67 67 68 69 69 70 72 73 73 74 75 75 75 75 76 75 74 73 72 72 72 72 72 72 72 72 72 73 73 72 72 75 76 76 75 73 73 75 76 76 77 78 78 79 79 79 80 80 79 79 79 79 79 79 79 79 79 79 79 79 79 78 78 77 77 77 77 78 78 79 80 81 82
73 73 72 71 70 70 69 69 69 69 69 70 70 70 71 72 72 73 73 74 75 76 77 78 78 78 79 78 76 74 75 75 75 74 74 74 73 73 73 74 76 74 74 77 80 79 78 78 78 79 79 80 80 80 80 80 80 80 80 80 80 80 80 80 80 80 81 82 82 81 81 81 80 80 79 79 80 81 83 83 84 84 85 87 88
77 76 76 76 75 75 75 75 75 75 75 74 74 74 74 75 75 75 76 76 77 77 78 79 80 80 80 80 79 78 78 79 79 79 79 79 79 78 78 79 80 80 79 81 82 83 83 83 83 83 83 83 82 82 81 80 80 80 81 81 81 82 82 81 81 83 83 84 84 84 85 84 84 83 83 84 86 88 89 89 90 91 92 93 94
79 79 79 78 78 78 78 78 79 79 79 79 79 79 79 79 79 79 79 79 79 80 80 81 81 81 81 82 82 81 81 82 82 83 83 82 82 82 83 83 84 84 84 84 85 85 86 86 86 86 85 84 84 83 83 82 82 82 83 82 82 83 83 84 85 85 84 84 86 87 88 88 88 88 89 90 92 93 93 94 95 96 96 97 97
81 80 80 80 80 80 80 80 80 81 82 83 83 83 83 83 83 83 83 83 83 83 83 83 84 84 84 84 84 84 84 84 84 85 85 85 85 86 86 87 87 87 87 87 87 87 87 87 87 87 87 87 86 86 86 85 85 84 85 84 84 84 86 86 86 86 85 87 89 91 91 91 91 92 93 95 95 96 97 98 99 100 99 99 100
83 83 82 82 82 83 83 83 83 83 83 84 85 85 86 86 86 86 86 86 86 85 85 85 86 86 86 86 86 87 87 87 87 87 88 88 88 89 89 89 89 89 89 88 88 89 89 89 89 89 89 90 90 90 89 89 88 87 87 86 86 86 88 89 89 89 89 90 92 94 96 96 95 96 98 99 99 100 101 103 103 103 102 102 103
83 84 85 85 85 85 86 86 86 86 86 87 87 88 88 88 88 88 88 88 88 88 87 87 87 87 88 88 88 89 89 89 90 90 90 90 90 90 90 90 90 90 91 91 91 91 91 92 92 92 92 93 93 93 92 92 91 90 90 90 89 90 91 92 93 93 94 95 96 97 99 100 100 101 102 103 103 104 106 107 107 106 105 104 104
82 83 85 85 86 86 86 87 88 88 88 89 89 89 89 89 89 89 89 89 89 90 90 90 90 90 90 90 90 90 91 91 91 91 91 91 91 91 92 92 92 93 93 93 94 94 94 94 95 95 95 96 96 96 96 96 95 95 94 94 94 94 95 96 96 97 98 99 100 101 102 103 103 103 104 106 107 109 110 110 109 108 106 105 103
83 84 86 86 87 87 87 87 87 88 88 89 89 89 90 90 90 90 90 90 90 91 91 91 91 91 91 91 91 91 91 91 91 91 92 92 93 94 94 94 94 94 95 96 96 96 96 97 97 98 98 98 98 99 99 99 99 98 98 98 98 99 99 100 100 100 100 101 103 104 105 105 105 106 107 109 110 112 112 110 109 108 107 105 103
85 86 87 87 87 87 87 87 87 88 88 89 89 90 90 90 90 90 90 90 91 91 91 91 92 92 92 93 93 93 93 93 93 93 94 94 95 95 96 96 97 97 98 99 99 99 99 100 101 101 101 101 101 101 101 102 102 102 102 102 102 102 102 102 103 103 103 104 105 105 106 107 107 108 109 110 111 111 111 109 108 106 105 104 101
86 87 87 87 87 87 86 86 86 86 87 87 88 88 89 89 89 89 89 89 90 90 91 91 91 92 92 93 93 94 94 94 95 95 95 96 97 98 99 100 100 101 102 102 103 103 103 103 104 104 104 103 103 103 103 104 104 104 104 103 103 103 103 103 103 104 105 105 106 106 107 107 108 109 110 110 111 112 112 111 108 106 104 103 101
85 85 86 86 85 85 85 85 85 85 85 86 86 86 87 87 87 88 88 89 90 91 91 91 92 92 92 93 93 94 95 96 96 97 98 99 100 101 102 103 103 104 105 105 106 106 106 106 106 105 105 105 105 105 105 105 105 105 104 104 103 102 102 102 103 104 105 105 106 106 107 107 108 108 108 110 111 112 112 111 108 106 104 103 101
83 84 85 85 86 86 86 87 87 87 87 87 87 88 88 89 90 90 91 91 92 93 93 94 94 95 95 96 96 97 98 99 100 101 101 102 103 104 104 105 105 106 107 107 108 108 108 107 107 107 107 106 106 105 105 105 105 105 104 104 103 103 103 103 103 104 105 105 106 106 106 107 107 107 106 107 107 108 107 106 104 103 101 100 98
84 84 85 86 87 87 88 88 88 88 89 89 90 90 91 92 93 93 94 94 95 95 96 97 97 98 99 100 100 101 102 102 103 103 104 105 105 106 107 107 108 108 108 108 109 109 109 108 107 107 106 105 104 104 104 105 104 104 104 103 103 103 103 103 103 104 103 103 103 103 103 103 102 101 100 100 100 101 101 100 99 98 97 95 94
85 86 86 87 88 88 89 89 90 90 91 91 92 93 94 94 95 96 96 97 98 98 99 99 100 101 102 103 104 104 105 105 106 106 107 107 108 108 109 109 109 109 109 109 109 109 109 108 107 106 105 104 104 103 103 103 102 101 100 99 98 98 98 99 99 99 98 98 97 96 96 95 93 91 91 92 93 93 93 93 92 92 92 92 91
86 87 88 88 89 90 90 91 92 92 93 94 95 95 96 97 98 98 99 99 100 100 101 101 102 103 104 105 106 107 107 108 108 108 109 109 109 109 109 109 109 110 110 110 109 109 108 108 107 106 105 103 101 100 99 99 98 96 94 93 92 91 90 91 91 91 91 91 91 91 89 87 85 84 85 86 87 87 86 86 85 85 86 87 87
88 89 89 89 90 91 91 92 93 94 94 95 96 97 98 98 99 99 100 100 101 101 102 102 103 104 104 106 107 108 108 109 109 109 109 109 110 110 110 110 109 109 109 108 108 107 106 104 103 101 99 97 95 93 92 91 90 89 87 86 85 84 84 84 85 85 85 85 86 85 83 81 79 79 80 80 80 80 79 79 79 80 80 80 81
90 90 90 91 91 92 92 93 94 94 95 96 96 97 98 99 99 100 100 101 101 102 103 103 103 104 104 105 106 107 107 108 108 108 108 108 109 109 109 108 108 107 105 104 102 101 99 97 95 93 91 89 88 86 85 84 82 81 79 78 77 77 78 78 79 79 80 80 80 79 77 75 74 74 75 75 73 73 73 74 74 74 74 74 75
88 89 89 90 90 91 92 92 93 93 94 94 95 96 97 98 99 99 100 101 101 102 102 102 103 103 103 103 104 104 104 104 104 104 104 104 103 103 102 101 100 98 96 95 93 91 90 88 86 85 83 82 81 80 79 77 76 74 72 71 70 70 71 72 73 73 74 74 73 72 71 70 69 70 71 70 68 67 68 68 68 69 69 69 69
86 86 87 87 88 89 89 90 90 91 91 92 93 94 94 95 96 97 97 97 98 98 98 98 98 98 98 98 98 97 97 96 96 95 95 94 93 92 91 90 89 88 87 86 85 83 82 81 79 78 76 75 74 73 71 70 69 68 66 65 65 65 66 67 68 69 69 68 67 67 67 67 66 66 67 66 65 63 63 63 63 63 64 64 64
84 84 85 85 86 87 87 88 88 88 89 89 90 90 90 91 91 91 91 92 92 91 91 91 91 91 90 90 89 89 88 87 87 86 85 85 84 83 83 82 82 81 80 78 77 76 74 73 71 71 69 68 67 66 65 65 65 63 62 61 61 61 62 63 65 65 65 64 63 63 63 64 64 63 63 62 61 60 59 58 58 58 58 58 59
83 83 84 84 85 85 85 85 85 86 86 86 86 86 86 86 86 86 86 85 85 85 85 84 84 84 83 83 82 82 81 81 80 79 79 78 77 76 75 75 74 73 72 70 70 69 68 66 65 65 65 64 64 63 62 61 61 60 59 58 58 58 58 60 61 62 62 62 61 60 60 60 60 60 60 59 59 58 57 56 55 55 54 54 55
81 82 82 83 83 83 83 83 83 82 82 82 82 82 82 82 81 81 81 80 80 79 79 79 78 78 77 77 76 75 75 74 74 73 72 70 69 68 67 67 66 66 65 64 64 64 63 62 61 61 61 60 60 60 59 58 58 57 57 56 56 55 55 56 57 58 59 59 58 57 57 56 56 55 55 55 55 55 55 54 53 53 52 52 53
78 79 80 80 80 80 80 80 79 79 78 78 78 78 78 77 77 76 76 75 75 74 73 73 72 71 71 70 69 68 68 67 66 65 64 63 62 62 61 61 61 61 60 59 59 60 60 59 57 57 57 56 56 56 56 56 55 55 54 54 53 53 53 53 54 55 55 55 54 54 53 52 52 51 51 50 50 51 51 51 50 50 50 50 51
75 76 76 76 76 76 75 75 75 74 74 73 73 73 73 72 72 71 70 69 68 67 67 66 65 64 64 63 62 62 61 61 61 60 60 59 59 58 58 58 57 57 57 56 55 55 55 55 54 54 53 53 53 53 53 52 52 52 51 51 50 50 50 50 50 50 50 50 50 49 49 49 49 48 48 47 47 47 47 46 46 46 46 47 47
71 72 72 72 71 70 70 69 69 68 68 68 67 67 67 66 65 64 63 62 62 61 60 60 59 59 58 58 58 57 57 57 57 57 57 56 56 55 55 54 54 54 53 52 51 51 51 51 51 51 50 50 49 49 49 49 49 48 48 48 47 47 46 46 46 46 46 46 46 46 46 46 46 45 45 44 44 44 44 43 43 42 42 42 43
67 67 66 65 65 64 64 63 63 63 62 62 61 61 60 60 59 58 58 57 57 57 56 56 56 56 56 55 55 54 54 54 53 53 53 53 53 52 52 51 51 50 50 49 48 48 48 48 47 47 47 47 46 46 46 46 46 45 45 44 43 43 43 42 42 42 42 42 42 42 43 43 43 43 43 42 41 41 41 40 40 39 38 38 38
62 62 61 60 59 59 59 59 58 58 58 57 56 56 56 55 55 55 55 54 54 54 54 54 54 54 53 53 52 51 51 50 50 50 50 50 50 50 50 49 48 47 47 46 45 45 45 45 44 43 44 44 44 43 43 43 42 42 41 40 40 40 39 38 38 38 38 39 39 39 40 40 40 40 40 40 39 38 37 37 37 36 35 35 35
57 56 56 55 55 55 55 55 55 55 54 54 53 53 53 53 53 53 53 53 53 53 53 52 52 51 51 50 49 49 48 48 48 48 48 47 47 47 47 46 45 44 44 44 43 43 42 42 41 41 40 41 41 41 40 40 39 38 38 37 37 36 35 35 35 35 35 36 36 36 36 37 37 37 37 36 35 35 34 34 33 33 33 33 32
53 53 52 52 52 52 52 52 52 52 52 51 51 51 51 51 51 51 51 51 51 51 51 50 50 49 48 47 47 47 47 47 46 46 45 45 44 44 44 44 43 42 42 42 41 40 39 39 39 39 38 38 38 38 37 37 36 36 35 34 34 33 32 32 32 32 32 32 33 33 34 34 34 34 33 32 32 31 31 31 31 31 31 30 30
50 50 50 50 50 50 50 50 50 50 50 50 50 50 49 49 49 49 49 49 49 49 49 48 48 47 46 45 45 45 45 45 45 44 43 43 43 42 42 42 41 40 39 40 39 38 37 37 37 37 36 36 36 35 35 34 34 33 33 32 32 31 30 29 29 28 28 29 30 30 31 31 31 30 30 29 28 28 28 28 28 28 28 28 28
Wind_Direction
242 243 245 245 245 245 248 251 255 259 263 266 268 269 266 265 265 266 267 268 267 265 261 258 257 256 256 257 257 257 258 258 259 259 259 259 258 258 259 259 259 260 260 260 259 259 258 257 257 258 259 259 258 257 258 263 270 277 287 295 299 302 303 300 294 290 287 285 284 282 280 279 279 279 280 280 281 282 282 281 282 282 281 279 277
246 246 247 248 249 249 250 252 255 258 262 265 266 264 262 262 264 266 268 270 269 265 260 257 256 256 256 257 257 258 259 260 260 260 261 261 261 261 261 260 260 260 260 259 257 257 256 257 258 260 261 261 259 259 261 265 270 277 288 296 300 303 304 301 296 290 287 285 283 282 280 278 277 278 278 278 279 279 279 279 278 278 277 275 274
251 250 250 251 251 252 253 253 253 257 261 265 265 263 262 263 264 266 268 270 269 266 261 258 257 255 254 255 257 259 259 259 259 260 261 261 262 261 261 261 261 261 260 260 259 259 259 260 262 265 266 266 265 264 264 266 271 279 288 295 299 302 303 302 297 292 288 285 283 281 279 277 276 275 276 276 277 277 276 275 274 273 272 271 271
254 254 254 253 253 253 255 254 254 256 259 261 262 263 263 264 265 267 269 270 269 267 264 261 258 256 256 256 256 258 259 259 260 261 261 261 260 260 260 261 261 261 262 263 263 264 263 264 266 268 271 273 273 272 271 272 277 284 289 294 297 299 300 300 298 293 290 287 284 282 280 279 277 276 276 276 277 276 276 276 274 272 270 269 270
260 258 255 254 255 254 256 258 259 258 256 254 256 260 263 265 267 268 268 268 267 266 264 260 258 258 258 258 257 256 258 259 260 261 262 261 260 260 261 261 262 263 264 265 265 266 266 266 268 272 277 281 281 280 279 280 283 287 290 293 294 296 298 298 296 292 289 288 286 284 282 282 281 281 280 278 278 279 279 278 277 274 272 271 271
252 259 257 254 256 256 257 257 256 256 255 255 256 259 261 263 265 265 264 264 264 265 264 262 260 260 261 262 260 258 258 260 261 262 262 262 262 262 262 262 264 266 267 267 267 267 268 269 273 277 281 283 283 283 283 283 284 287 289 290 291 293 296 296 293 290 288 287 286 285 284 284 283 283 282 280 280 281 280 279 278 276 275 274 273
234 247 252 251 248 244 242 242 244 248 253 256 258 261 262 263 264 264 263 262 263 264 265 265 263 262 264 264 262 260 261 262 262 262 263 264 264 264 265 267 269 270 270 269 270 272 274 275 277 279 280 281 282 282 281 282 284 286 288 289 290 292 294 294 291 289 288 286 286 286 286 286 286 285 284 283 283 282 281 280 279 278 277 276 275
232 235 239 240 234 226 228 234 237 242 246 250 257 262 264 265 265 267 267 266 265 266 265 264 264 264 266 266 264 264 266 265 265 265 266 268 269 270 272 274 274 272 271 272 275 278 280 280 280 280 281 281 280 280 281 283 285 287 288 289 291 292 293 292 290 290 290 288 288 289 290 290 291 291 290 290 289 288 288 288 287 286 285 283 283
229 229 233 237 233 225 226 233 238 240 242 247 254 258 261 262 264 266 268 269 269 267 264 263 264 266 268 269 268 269 270 270 270 270 271 274 276 277 278 277 276 274 273 275 278 281 282 281 280 280 280 280 281 282 284 286 288 289 290 290 291 293 293 291 290 292 292 291 291 292 293 294 294 294 294 294 294 294 295 294 292 291 290 289 288
225 229 235 239 238 233 230 233 240 243 244 246 249 253 256 259 261 263 263 264 264 263 263 265 267 268 268 270 272 273 273 273 273 273 275 278 280 280 279 278 277 276 276 279 281 282 281 279 278 279 280 282 285 287 289 291 292 293 293 293 293 294 293 291 291 293 293 293 294 295 296 296 296 296 296 295 295 294 293 292 289 288 287 287 287
228 233 238 241 242 241 237 235 239 242 243 244 246 249 253 256 258 260 259 259 260 261 264 267 270 271 271 271 272 274 273 273 273 275 278 280 280 280 279 278 278 278 279 282 284 283 281 279 279 280 284 287 289 290 292 294 295 295 295 295 295 296 295 293 293 294 294 294 295 296 297 297 297 297 295 294 293 292 290 289 288 287 286 286 286
234 236 238 240 241 241 238 236 236 237 240 244 246 248 251 252 254 255 256 259 262 265 267 270 273 276 277 276 276 276 275 275 276 277 279 279 279 279 279 279 280 280 281 284 286 285 284 283 282 283 286 289 291 292 293 295 295 296 296 296 297 297 296 295 295 296 296 296 296 296 296 296 296 295 293 292 291 289 288 287 286 286 285 285 285
238 239 238 238 238 237 236 236 236 236 238 242 245 247 250 253 254 254 256 259 262 265 269 272 275 277 279 280 280 280 279 278 278 279 279 279 280 281 282 283 282 282 282 283 284 284 284 284 284 286 288 290 292 293 295 295 296 296 296 296 297 298 297 296 296 296 297 296 295 295 295 295 294 293 291 290 289 287 286 285 285 285 285 285 285
240 241 241 239 237 237 238 238 240 240 240 241 243 246 249 253 256 256 258 260 262 265 268 271 274 275 276 278 280 280 281 281 281 281 280 280 280 281 281 281 279 279 279 281 282 283 284 284 285 288 290 292 294 295 296 296 296 295 296 297 298 298 297 295 295 295 295 294 293 292 293 293 293 292 291 290 289 287 285 285 285 285 285 285 285
238 241 243 242 240 239 240 240 239 240 241 241 243 245 249 253 257 259 259 261 263 265 267 270 271 272 273 275 277 278 279 279 279 277 275 274 275 275 274 273 273 275 277 280 282 283 284 285 287 289 291 293 295 296 295 295 294 293 294 295 296 296 295 294 293 293 293 292 291 290 291 292 291 291 291 291 289 287 286 285 285 285 284 284 285
233 237 240 243 243 242 242 240 238 238 238 239 241 245 249 252 255 256 258 259 261 262 264 265 265 266 268 270 271 272 272 272 272 271 270 270 270 269 269 271 273 276 279 281 283 284 285 286 289 291 292 293 293 293 292 292 291 291 291 293 293 293 293 293 293 292 291 289 288 288 289 290 290 291 291 290 289 288 287 286 285 285 285 285 286
232 234 237 241 244 245 245 244 242 241 240 240 240 243 246 249 250 250 251 253 255 257 258 258 259 260 261 262 263 264 265 265 266 267 267 268 268 270 272 274 277 280 282 283 284 285 286 287 289 290 290 290 290 289 289 289 289 289 289 290 291 291 291 291 290 290 289 288 287 286 287 289 290 290 291 290 289 288 287 287 286 285 285 286 286
235 237 238 240 242 244 246 247 247 247 247 247 245 245 245 247 249 250 251 252 254 255 255 256 257 258 260 261 262 263 264 266 267 269 270 271 273 275 277 279 281 283 284 284 284 285 285 286 287 287 287 287 287 287 287 287 287 288 288 288 288 288 287 287 287 287 286 286 286 286 287 288 289 289 289 289 288 287 287 287 286 285 285 285 285
236 238 240 241 242 243 245 247 249 250 251 252 252 251 250 250 251 252 254 256 257 258 259 260 262 263 264 266 267 269 271 273 274 275 275 276 278 279 280 281 283 283 283 283 283 284 284 285 286 286 286 286 286 286 286 287 287 287 287 286 286 285 285 284 285 284 285 285 285 285 286 287 287 287 287 287 287 286 286 285 285 285 286 286 287
235 237 239 241 243 244 245 247 248 249 251 252 253 254 255 255 255 255 256 258 260 261 263 264 266 268 269 270 272 274 275 275 275 275 276 277 278 279 281 282 282 282 282 282 282 282 284 285 285 285 284 285 285 285 285 285 285 285 285 284 284 284 283 284 284 284 284 284 284 284 284 285 285 285 285 286 286 285 285 286 287 288 289 290 291
237 238 239 240 242 244 245 247 248 249 251 252 253 254 255 256 257 258 259 260 261 262 264 265 266 268 269 270 272 273 273 273 274 275 275 276 277 278 279 279 279 279 280 280 280 281 282 282 282 282 283 283 283 283 283 284 284 284 284 284 284 284 284 285 285 285 285 285 285 285 285 285 286 286 286 287 288 289 290 290 291 292 293 294 295
240 241 242 243 244 245 246 248 249 250 251 253 254 255 256 257 258 259 260 261 261 262 263 265 265 266 267 268 269 270 271 272 273 273 274 274 275 275 275 276 277 277 278 278 279 280 281 281 281 281 281 282 282 282 283 283 284 284 284 284 285 285 286 286 287 287 287 288 288 289 289 289 289 290 291 292 293 294 294 294 295 295 296 297 297
243 243 244 245 246 248 249 250 251 252 253 255 255 256 257 258 259 260 261 261 262 263 264 265 266 267 268 268 269 269 271 272 273 273 274 274 275 275 275 276 277 278 277 277 278 279 280 281 281 281 281 282 282 283 283 284 284 283 283 284 284 285 285 286 286 286 288 290 291 292 292 293 293 294 295 295 295 295 296 296 296 296 297 297 297
245 246 246 248 249 250 251 253 254 255 256 256 257 258 259 260 261 262 263 264 264 265 266 266 267 268 269 270 271 271 271 272 273 274 274 275 275 276 276 277 277 278 278 278 278 279 280 280 280 281 281 281 282 282 283 283 282 282 282 283 283 285 285 286 286 288 289 291 292 292 293 294 294 295 295 294 294 294 294 294 294 295 295 295 296
248 248 249 250 252 253 254 256 257 259 259 260 260 260 260 261 261 262 263 264 265 266 267 268 268 269 270 271 272 272 273 273 274 274 275 275 276 276 277 277 278 278 279 279 280 280 280 281 281 281 281 281 281 282 282 282 282 281 282 282 284 285 286 287 288 290 291 291 291 291 292 292 293 292 292 292 292 292 293 293 293 293 293 294 295
252 252 252 253 254 256 257 258 260 261 263 263 264 264 264 264 265 265 265 265 266 267 268 268 269 270 270 271 272 272 273 274 274 275 276 276 277 277 278 278 279 279 280 280 281 281 281 282 282 281 282 282 282 282 283 283 283 283 284 285 286 287 288 289 290 290 290 290 291 291 291 291 291 291 291 291 292 292 292 291 291 292 293 294 294
255 255 255 255 256 257 258 259 260 261 262 264 265 265 266 266 267 267 268 268 268 269 270 270 271 271 272 273 273 274 274 275 276 277 277 277 278 278 278 278 279 279 279 280 280 281 281 282 282 282 283 283 284 284 285 285 285 286 286 287 288 288 289 289 290 290 290 290 290 290 290 290 290 290 290 290 290 290 289 290 291 292 292 291 291
256 257 257 257 258 258 259 260 260 261 262 263 264 265 266 266 267 268 269 269 270 271 271 272 272 272 273 273 274 275 275 276 276 277 277 277 277 278 278 279 279 280 280 281 282 283 283 284 284 284 285 285 286 286 286 286 287 287 287 288 288 288 288 288 288 289 288 288 288 288 287 287 287 287 287 287 287 287 287 289 290 290 290 290 290
255 256 257 258 258 259 259 260 261 261 262 263 264 265 266 266 267 268 269 269 270 271 271 271 272 272 273 273 274 274 275 275 276 276 276 277 277 278 278 278 279 279 280 281 282 283 283 284 284 284 284 285 285 285 286 286 286 286 287 287 287 287 287 287 286 286 285 285 285 284 284 285 285 285 285 285 285 286 287 288 288 289 289 290 290
254 255 256 257 258 259 260 261 261 262 263 263 264 265 265 266 267 267 268 268 269 269 270 270 271 271 272 272 273 273 273 274 274 274 275 275 276 276 277 277 278 278 279 280 280 281 281 281 282 282 282 282 282 283 283 283 284 284 284 284 284 284 284 284 284 284 283 283 283 283 283 283 284 284 284 284 285 286 287 287 288 288 289 290 291
254 255 256 258 259 260 260 261 262 263 263 264 264 265 265 266 266 267 267 268 268 268 269 269 270 270 271 271 272 272 273 273 273 273 274 274 275 276 276 277 277 278 278 278 278 279 279 279 280 280 280 280 280 281 281 282 282 282 282 282 283 283 283 283 283 283 283 283 283 283 283 283 283 283 284 285 286 287 287 288 288 289 290 291 292
256 257 258 259 260 260 261 262 262 263 263 264 264 264 265 265 266 266 267 267 268 268 269 269 269 270 270 271 271 272 272 272 273 273 274 274 275 275 276 276 277 277 278 278 279 279 279 280 280 281 281 281 281 282 282 282 282 283 283 283 283 283 283 283 283 282 282 282 282 282 282 283 283 283 284 284 285 285 286 286 287 289 289 290 291
258 259 259 260 260 261 261 261 262 262 263 263 264 265 265 266 267 267 268 268 269 269 269 270 270 271 271 271 272 272 272 273 273 274 274 275 275 276 276 277 277 278 279 279 280 280 281 281 282 282 282 282 283 283 283 283 283 284 284 284 284 284 284 283 283 283 282 282 282 282 282 282 282 282 282 282 282 283 283 284 285 286 287 288 288
258 259 260 260 261 261 262 262 263 263 264 264 265 265 266 267 268 268 269 269 270 270 270 271 271 271 272 272 272 273 273 274 274 275 275 276 276 277 277 278 279 279 280 280 281 281 282 282 282 283 283 283 284 284 284 284 284 284 284 284 284 284 283 283 282 282 281 281 280 280 280 279 279 279 280 280 280 281 282 282 283 284 285 285 286
258 259 260 260 261 262 262 263 263 264 264 265 265 266 266 267 267 268 269 269 270 270 271 271 271 272 272 273 273 273 274 274 275 276 276 277 277 278 278 279 280 280 281 281 282 282 283 283 284 284 284 284 284 284 284 284 284 284 283 283 283 282 282 281 281 280 280 279 279 278 277 277 277 278 278 278 278 278 279 279 280 281 282 283 283
259 259 260 260 261 261 262 262 263 263 264 265 265 265 266 266 267 267 268 268 269 269 270 270 271 271 272 273 273 274 275 275 276 276 277 278 278 279 279 280 280 281 281 282 282 283 283 284 284 284 284 284 284 284 284 283 283 283 283 282 282 281 280 280 279 279 278 278 277 276 276 276 277 277 277 276 276 277 277 278 278 278 279 279 280
261 261 261 262 262 262 263 263 263 264 264 265 265 265 266 266 266 267 267 268 268 269 269 270 270 271 271 272 273 274 275 276 277 277 278 278 279 279 280 280 281 281 282 282 283 283 283 283 283 284 284 284 284 283 283 282 282 281 281 281 280 280 279 278 278 277 277 276 276 276 277 277 277 277 276 276 276 276 277 277 276 276 276 276 276
261 262 262 263 263 263 264 264 264 264 264 265 265 265 266 266 267 267 267 268 268 269 269 270 270 271 272 272 273 274 274 275 276 277 277 278 278 279 279 280 280 281 281 282 282 282 282 283 283 283 283 283 283 283 282 281 281 280 280 279 279 278 277 277 276 276 276 275 276 276 277 278 278 277 276 276 276 275 275 274 274 274 274 274 274
261 262 262 263 263 263 264 264 264 265 265 265 265 266 266 267 267 268 268 269 269 270 270 271 272 272 272 273 273 274 274 275 275 276 276 277 277 278 278 279 279 280 280 281 281 281 282 282 282 282 282 282 282 281 281 281 280 280 280 279 278 277 277 276 276 275 275 275 276 277 278 278 276 275 275 275 274 273 273 273 273 273 273 273 274
263 263 264 264 265 265 265 266 266 266 267 267 267 267 268 268 269 269 270 270 271 271 272 272 273 273 274 274 274 274 274 275 275 275 276 276 277 277 278 279 279 280 280 281 281 281 282 282 282 282 282 281 281 281 281 281 280 280 280 279 279 278 277 276 276 275 276 276 276 277 277 276 275 274 274 274 274 273 272 272 272 272 273 273 274
265 265 266 266 267 267 267 267 268 268 268 269 269 269 270 270 271 271 272 272 273 273 274 274 274 275 275 275 275 275 276 276 276 277 277 277 278 279 279 280 280 281 281 282 282 282 282 282 282 282 282 282 282 281 281 281 281 281 280 279 278 278 277 276 276 276 276 276 275 275 275 275 275 274 274 274 274 274 273 272 272 271 271 271 271
267 267 267 268 268 268 268 269 269 269 270 270 271 272 272 273 273 273 274 274 274 275 275 275 276 276 276 276 277 277 277 278 278 278 279 279 279 280 280 280 281 281 282 282 282 282 282 282 283 283 283 283 282 282 281 281 281 281 280 280 278 277 276 276 275 275 275 275 275 275 275 274 274 274 274 275 275 275 275 274 272 271 270 269 268
267 267 268 268 268 269 269 270 270 271 272 272 273 274 274 274 275 275 275 275 276 276 276 276 276 277 277 277 278 278 278 278 279 279 279 280 280 280 281 281 281 282 282 282 282 283 283 283 282 282 282 282 282 282 282 282 281 281 281 280 279 278 277 276 275 275 275 276 276 276 275 275 275 274 274 274 274 274 274 273 272 271 270 269 268
267 267 268 268 269 270 270 271 272 273 273 274 274 275 275 275 275 275 275 276 276 276 276 276 276 277 277 277 278 278 279 279 279 280 280 281 281 281 282 282 282 282 282 282 282 283 283 283 283 283 282 282 282 282 282 282 282 281 281 280 279 278 277 276 275 275 275 275 275 275 275 275 274 274 273 272 271 271 271 271 271 270 270 270 270
266 267 268 268 269 270 271 272 273 274 274 274 274 275 275 275 275 275 275 275 275 275 276 276 276 277 277 278 278 279 280 280 281 281 282 282 282 282 282 282 282 282 283 283 283 283 283 284 284 284 283 283 282 282 282 281 281 281 280 279 279 278 277 276 275 274 274 274 274 274 274 274 274 274 273 272 271 270 270 269 269 269 269 269 270
266 267 268 269 270 271 272 273 273 274 274 274 274 274 274 274 274 274 275 275 275 276 276 277 277 277 278 279 279 280 280 281 282 282 282 282 283 283 283 283 283 283 284 284 284 284 284 284 284 284 283 283 282 282 281 281 280 280 279 278 277 277 276 275 274 274 274 274 274 274 274 274 274 274 273 272 272 271 270 270 269 269 268 268 268
267 268 269 270 271 272 272 272 273 273 273 273 273 273 273 274 274 275 275 276 276 277 277 277 277 278 278 279 279 280 281 281 282 282 282 283 283 283 284 284 284 284 284 284 284 283 283 283 283 283 283 282 282 281 281 280 280 279 278 277 276 275 275 274 274 273 273 273 273 273 273 273 273 273 273 273 272 272 271 271 270 270 269 267 267
267 268 269 270 271 271 271 272 272 272 272 272 273 273 273 274 275 275 276 276 276 277 277 277 277 278 278 279 280 280 281 281 282 282 283 283 284 284 285 285 284 284 284 284 283 283 283 282 282 282 282 282 282 281 281 280 279 278 277 276 275 274 273 273 273 273 272 272 271 271 271 271 271 271 271 272 272 272 271 271 270 269 268 266 265
267 268 269 269 270 270 271 271 271 271 271 272 272 273 273 274 275 275 276 276 276 276 277 277 277 278 279 280 281 281 281 282 282 282 283 283 284 285 285 285 284 284 283 283 283 283 283 282 282 281 281 281 281 281 281 280 279 278 277 276 275 274 273 273 273 273 272 271 270 270 269 269 269 269 269 270 270 270 270 269 268 267 265 264 263
266 267 268 268 269 269 269 270 270 270 271 271 272 272 273 274 274 275 276 276 276 277 277 277 278 279 280 281 281 282 282 282 283 283 284 284 285 285 285 285 284 284 283 283 283 282 282 281 282 282 282 282 281 281 281 281 280 279 277 276 275 274 274 274 274 274 273 272 271 271 271 270 270 269 269 269 269 268 268 267 266 264 263 262 261
265 266 266 267 267 268 268 268 269 269 270 271 271 272 273 273 274 275 275 276 276 277 277 278 279 279 280 281 281 282 282 283 284 284 285 286 286 285 285 284 284 283 282 282 282 281 281 281 281 282 283 283 283 282 282 282 281 280 279 278 277 276 275 275 275 274 273 273 273 273 272 271 271 271 270 270 269 268 267 266 265 264 262 261 259
Height
10618 10619 10620 10622 10623 10624 10625 10625 10626 10626 10626 10627 10627 10627 10628 10629 10630 10631 10631 10632 10633 10634 10635 10635 10636 10636 10638 10638 10639 10639 10640 10640 10640 10641 10642 10642 10643 10643 10643 10644 10644 10645 10645 10645 10646 10646 10646 10647 10646 10646 10646 10646 10646 10646 10646 10645 10645 10645 10644 10643 10642 10641 10639 10637 10635 10633 10631 10629 10628 10627 10626 10625 10624 10623 10622 10621 10620 10619 10618 10617 10616 10616 10615 10615 10614
10614 10615 10617 10618 10619 10620 10621 10622 10622 10622 10622 10622 10623 10623 10624 10625 10627 10627 10628 10629 10630 10631 10631 10632 10632 10633 10634 10634 10635 10635 10635 10636 10636 10637 10638 10638 10639 10639 10640 10640 10641 10641 10642 10642 10642 10643 10643 10643 10643 10643 10643 10643 10642 10642 10641 10641 10641 10640 10640 10639 10637 10636 10634 10632 10630 10628 10626 10624 10623 10622 10620 10619 10618 10617 10616 10615 10614 10613 10612 10611 10611 10610 10610 10609 10609
10611 10612 10613 10615 10616 10617 10617 10618 10618 10618 10618 10618 10618 10619 10620 10621 10622 10624 10625 10625 10626 10627 10628 10628 10629 10629 10629 10630 10631 10631 10631 10632 10633 10633 10634 10635 10635 10636 10636 10637 10637 10638 10638 10638 10639 10639 10639 10639 10639 10639 10639 10639 10638 10638 10637 10636 10636 10636 10635 10634 10633 10631 10629 10627 10625 10623 10621 10619 10617 10616 10615 10614 10613 10612 10611 10609 10608 10607 10607 10606 10605 10605 10604 10604 10603
10608 10608 10609 10610 10611 10612 10613 10613 10613 10613 10614 10614 10613 10614 10615 10616 10618 10619 10620 10621 10622 10623 10624 10624 10624 10625 10626 10626 10627 10628 10628 10628 10629 10630 10631 10631 10632 10632 10632 10633 10633 10634 10634 10635 10635 10635 10635 10635 10635 10635 10635 10635 10634 10634 10633 10632 10631 10631 10630 10629 10627 10626 10624 10622 10620 10618 10616 10614 10613 10611 10610 10609 10608 10606 10605 10604 10603 10602 10601 10601 10600 10599 10599 10598 10597
10604 10604 10605 10607 10607 10608 10609 10609 10609 10609 10609 10608 10608 10609 10610 10612 10614 10615 10616 10616 10617 10618 10619 10620 10620 10621 10622 10623 10624 10624 10625 10625 10625 10626 10627 10627 10628 10629 10629 10629 10629 10630 10630 10630 10631 10631 10631 10631 10630 10630 10630 10630 10630 10629 10628 10627 10626 10625 10624 10622 10621 10620 10618 10616 10615 10613 10611 10609 10608 10607 10605 10604 10603 10602 10601 10600 10599 10598 10596 10595 10594 10593 10592 10591 10590
10600 10600 10602 10604 10605 10607 10607 10606 10604 10603 10603 10603 10604 10605 10606 10608 10609 10610 10612 10613 10613 10614 10615 10616 10616 10617 10618 10619 10620 10621 10621 10621 10622 10622 10623 10623 10624 10625 10625 10625 10625 10625 10625 10625 10626 10626 10626 10626 10626 10626 10625 10625 10624 10623 10622 10621 10620 10619 10618 10616 10615 10614 10612 10610 10609 10608 10606 10604 10603 10602 10601 10600 10598 10597 10596 10595 10594 10593 10591 10589 10588 10587 10586 10584 10583
10596 10599 10601 10602 10604 10605 10603 10601 10599 10598 10599 10599 10599 10600 10602 10603 10604 10605 10606 10608 10610 10610 10611 10611 10611 10613 10614 10615 10616 10617 10617 10618 10618 10618 10619 10619 10619 10620 10620 10621 10621 10620 10620 10620 10621 10621 10621 10621 10621 10621 10620 10619 10618 10617 10616 10615 10614 10613 10611 10610 10609 10607 10605 10603 10602 10602 10601 10599 10597 10596 10595 10594 10593 10592 10591 10590 10588 10587 10586 10584 10583 10581 10580 10578 10577
10594 10597 10598 10598 10599 10599 10596 10595 10595 10596 10596 10596 10596 10596 10597 10598 10599 10600 10600 10602 10604 10605 10606 10606 10607 10608 10610 10611 10612 10613 10613 10613 10613 10614 10614 10614 10614 10614 10615 10615 10615 10615 10615 10616 10616 10616 10615 10615 10615 10614 10614 10613 10612 10611 10610 10609 10607 10606 10605 10603 10601 10600 10598 10596 10595 10595 10594 10592 10590 10589 10588 10588 10587 10586 10585 10583 10582 10580 10579 10578 10576 10574 10573 10572 10570
10591 10592 10592 10592 10593 10594 10593 10594 10594 10593 10593 10594 10593 10593 10592 10593 10595 10595 10595 10596 10598 10599 10599 10600 10602 10604 10605 10606 10607 10608 10608 10608 10608 10608 10608 10608 10608 10608 10608 10609 10609 10609 10609 10610 10609 10609 10608 10608 10607 10607 10606 10606 10605 10604 10603 10602 10601 10600 10598 10596 10594 10592 10590 10589 10587 10587 10586 10585 10583 10582 10581 10579 10579 10578 10577 10576 10574 10573 10572 10570 10568 10567 10565 10564 10562
10585 10586 10585 10586 10588 10590 10592 10593 10591 10591 10591 10591 10590 10589 10589 10589 10590 10591 10591 10591 10592 10592 10593 10594 10596 10598 10600 10601 10601 10602 10603 10603 10603 10603 10603 10602 10602 10602 10602 10602 10602 10602 10602 10602 10602 10601 10601 10600 10600 10599 10598 10597 10597 10596 10595 10595 10594 10593 10591 10589 10587 10585 10584 10582 10580 10579 10578 10577 10576 10574 10573 10571 10570 10569 10568 10567 10566 10565 10564 10562 10560 10559 10557 10556 10554
10578 10579 10580 10582 10583 10586 10589 10590 10589 10588 10588 10586 10586 10587 10586 10585 10586 10588 10587 10586 10586 10587 10588 10588 10589 10591 10593 10595 10596 10597 10597 10597 10597 10597 10597 10596 10596 10595 10595 10595 10594 10595 10595 10594 10594 10593 10593 10592 10592 10591 10590 10589 10589 10588 10587 10586 10585 10584 10582 10581 10580 10578 10577 10575 10574 10572 10571 10569 10567 10566 10565 10563 10562 10561 10560 10558 10558 10556 10555 10554 10552 10550 10549 10547 10546
10573 10574 10576 10577 10578 10581 10584 10585 10583 10583 10583 10583 10584 10585 10583 10582 10583 10584 10583 10582 10582 10583 10583 10584 10584 10583 10584 10587 10589 10590 10591 10591 10591 10591 10590 10590 10589 10588 10588 10587 10587 10586 10585 10585 10584 10584 10584 10584 10583 10583 10582 10582 10581 10580 10579 10577 10575 10574 10573 10572 10571 10570 10569 10568 10566 10564 10563 10561 10559 10558 10557 10555 10554 10554 10552 10551 10550 10548 10546 10545 10543 10542 10539 10537 10537
10568 10569 10571 10572 10574 10575 10578 10578 10577 10578 10580 10579 10580 10580 10579 10578 10579 10579 10579 10579 10578 10578 10578 10579 10579 10578 10577 10578 10581 10582 10583 10584 10584 10583 10583 10582 10581 10580 10579 10579 10578 10577 10577 10577 10576 10576 10576 10576 10576 10575 10575 10574 10573 10571 10569 10568 10566 10565 10564 10563 10562 10562 10560 10559 10557 10555 10554 10552 10550 10549 10548 10547 10546 10545 10544 10543 10542 10539 10537 10535 10534 10532 10530 10527 10527
10563 10563 10565 10567 10569 10570 10572 10573 10573 10574 10575 10575 10575 10575 10575 10573 10573 10575 10575 10575 10574 10574 10574 10574 10574 10573 10572 10573 10573 10574 10574 10575 10575 10574 10573 10573 10572 10571 10571 10571 10572 10571 10571 10571 10571 10570 10570 10569 10569 10568 10566 10565 10563 10561 10559 10558 10557 10555 10554 10554 10553 10552 10551 10550 10548 10546 10544 10542 10541 10540 10539 10538 10537 10536 10535 10534 10533 10530 10528 10526 10524 10522 10521 10518 10516
10558 10558 10559 10561 10563 10565 10566 10568 10569 10569 10570 10571 10570 10570 10570 10569 10569 10569 10570 10570 10569 10569 10569 10569 10569 10568 10567 10567 10568 10568 10567 10567 10567 10567 10567 10566 10566 10566 10566 10567 10567 10566 10566 10565 10564 10563 10563 10562 10561 10559 10557 10555 10554 10552 10550 10548 10548 10546 10545 10544 10543 10543 10542 10541 10539 10537 10535 10533 10532 10530 10529 10529 10528 10525 10525 10524 10523 10521 10518 10517 10515 10512 10511 10508 10506
10553 10553 10554 10555 10556 10558 10560 10561 10563 10564 10565 10565 10565 10565 10565 10565 10565 10565 10564 10565 10565 10564 10564 10563 10563 10563 10562 10562 10563 10563 10562 10563 10563 10562 10562 10562 10561 10561 10561 10560 10560 10559 10559 10558 10557 10556 10554 10553 10551 10550 10548 10547 10545 10543 10541 10540 10539 10537 10536 10535 10534 10533 10532 10530 10529 10528 10526 10524 10523 10521 10519 10519 10518 10516 10514 10514 10512 10510 10508 10506 10504 10502 10500 10498 10496
10546 10547 10548 10549 10550 10552 10553 10554 10556 10557 10558 10559 10559 10560 10560 10560 10560 10560 10559 10559 10560 10560 10559 10559 10558 10558 10557 10557 10558 10558 10558 10558 10558 10557 10556 10555 10554 10553 10553 10552 10551 10551 10550 10549 10548 10546 10545 10543 10542 10541 10539 10539 10538 10535 10534 10532 10530 10529 10528 10527 10525 10523 10522 10520 10519 10518 10516 10515 10513 10511 10509 10508 10508 10506 10505 10503 10501 10499 10497 10495 10493 10491 10488 10487 10485
10539 10540 10542 10543 10545 10545 10546 10547 10548 10549 10550 10551 10552 10553 10554 10554 10554 10554 10554 10554 10553 10553 10553 10553 10552 10552 10551 10551 10552 10552 10552 10551 10551 10550 10548 10547 10546 10545 10543 10542 10542 10541 10541 10540 10538 10537 10536 10534 10533 10533 10532 10531 10529 10528 10526 10524 10523 10521 10520 10519 10517 10516 10513 10512 10510 10509 10507 10506 10504 10501 10498 10497 10497 10495 10494 10493 10491 10488 10487 10485 10482 10480 10477 10476 10474
10533 10534 10535 10537 10538 10539 10540 10541 10541 10542 10543 10544 10545 10545 10546 10547 10547 10547 10547 10546 10546 10545 10545 10545 10544 10544 10543 10543 10543 10543 10543 10542 10541 10540 10539 10538 10537 10535 10534 10533 10533 10532 10531 10530 10528 10527 10527 10526 10525 10524 10523 10521 10520 10518 10517 10516 10514 10512 10511 10510 10509 10507 10505 10503 10502 10500 10498 10497 10495 10492 10489 10487 10487 10485 10484 10483 10481 10479 10477 10475 10472 10469 10466 10464 10461
10526 10527 10528 10529 10531 10532 10533 10534 10534 10535 10535 10536 10537 10537 10538 10538 10539 10539 10538 10538 10537 10537 10537 10537 10536 10535 10535 10534 10534 10535 10534 10532 10531 10530 10530 10529 10528 10527 10526 10525 10524 10523 10522 10520 10518 10517 10518 10518 10517 10514 10513 10512 10511 10509 10508 10507 10505 10503 10502 10501 10499 10498 10496 10494 10493 10490 10489 10488 10486 10483 10480 10478 10477 10476 10474 10473 10471 10468 10466 10463 10460 10457 10454 10451 10449
10519 10519 10520 10522 10523 10524 10526 10526 10526 10527 10527 10528 10529 10529 10530 10530 10530 10530 10530 10529 10529 10529 10528 10528 10528 10528 10526 10526 10527 10527 10524 10522 10522 10522 10521 10521 10520 10519 10519 10516 10514 10515 10514 10509 10506 10507 10509 10509 10508 10504 10503 10503 10502 10500 10499 10497 10495 10493 10490 10489 10488 10486 10485 10483 10481 10478 10477 10475 10473 10472 10469 10467 10466 10464 10463 10461 10458 10455 10453 10450 10447 10444 10441 10439 10437
10511 10512 10513 10514 10515 10516 10517 10518 10518 10518 10519 10520 10520 10521 10521 10521 10522 10522 10521 10521 10521 10521 10519 10519 10519 10519 10518 10518 10520 10519 10515 10512 10513 10514 10512 10512 10512 10512 10511 10507 10504 10507 10507 10500 10495 10496 10497 10498 10497 10494 10493 10492 10491 10489 10488 10487 10485 10482 10479 10477 10476 10474 10473 10471 10468 10465 10463 10461 10460 10458 10456 10454 10453 10452 10450 10448 10445 10441 10439 10436 10433 10431 10428 10426 10423
10503 10504 10505 10506 10507 10507 10508 10509 10509 10510 10510 10511 10512 10512 10512 10512 10512 10512 10512 10512 10512 10511 10510 10509 10509 10509 10508 10507 10509 10510 10507 10503 10503 10503 10502 10501 10501 10501 10501 10498 10494 10495 10496 10493 10489 10486 10485 10485 10484 10482 10481 10480 10479 10478 10477 10476 10474 10471 10468 10467 10466 10463 10462 10460 10457 10454 10453 10451 10447 10444 10442 10441 10440 10439 10437 10434 10431 10428 10426 10423 10421 10418 10416 10414 10411
10494 10495 10496 10497 10498 10499 10499 10500 10500 10501 10501 10502 10502 10503 10503 10503 10503 10503 10502 10502 10502 10502 10501 10500 10499 10499 10498 10497 10496 10498 10498 10495 10493 10492 10491 10490 10489 10489 10489 10487 10485 10483 10482 10481 10480 10477 10475 10474 10472 10470 10469 10468 10467 10466 10465 10464 10463 10461 10458 10457 10456 10452 10449 10447 10445 10443 10443 10440 10434 10431 10429 10429 10428 10427 10425 10422 10419 10416 10414 10412 10409 10407 10405 10402 10401
10485 10487 10488 10489 10490 10490 10491 10491 10491 10491 10491 10491 10492 10492 10492 10493 10493 10493 10493 10492 10492 10492 10491 10490 10490 10489 10488 10487 10486 10485 10485 10484 10483 10481 10479 10479 10478 10477 10476 10474 10473 10471 10469 10468 10467 10465 10464 10462 10460 10459 10457 10456 10455 10454 10453 10452 10451 10450 10447 10446 10445 10442 10437 10434 10434 10433 10431 10427 10422 10418 10418 10418 10418 10416 10412 10409 10407 10404 10402 10399 10396 10394 10393 10391 10389
10476 10478 10480 10480 10481 10481 10481 10482 10482 10482 10481 10480 10480 10481 10481 10481 10482 10482 10482 10482 10482 10482 10481 10480 10480 10479 10477 10477 10476 10474 10473 10473 10471 10470 10468 10467 10466 10464 10463 10462 10460 10458 10457 10456 10455 10453 10451 10449 10448 10446 10445 10443 10442 10442 10440 10439 10438 10437 10436 10434 10433 10430 10426 10423 10422 10420 10419 10416 10412 10407 10404 10404 10405 10402 10397 10395 10394 10391 10387 10384 10382 10381 10381 10380 10378
10466 10468 10469 10470 10471 10471 10471 10472 10472 10473 10472 10471 10471 10471 10471 10471 10471 10470 10470 10470 10470 10470 10470 10469 10468 10467 10466 10465 10464 10463 10462 10461 10460 10458 10456 10455 10453 10451 10450 10449 10447 10445 10444 10443 10442 10440 10438 10437 10435 10433 10432 10430 10428 10427 10426 10425 10424 10424 10423 10422 10421 10419 10416 10413 10410 10407 10404 10402 10401 10397 10392 10390 10389 10386 10382 10380 10379 10376 10372 10370 10369 10369 10369 10367 10366
10457 10458 10459 10460 10460 10461 10461 10461 10462 10462 10462 10462 10461 10461 10461 10461 10460 10460 10459 10459 10459 10458 10458 10457 10456 10455 10454 10453 10452 10451 10450 10449 10447 10445 10444 10442 10440 10439 10437 10436 10434 10432 10431 10429 10428 10427 10425 10423 10422 10420 10418 10417 10415 10413 10412 10411 10410 10410 10409 10408 10407 10406 10403 10401 10399 10397 10393 10389 10387 10385 10382 10379 10377 10375 10372 10368 10365 10362 10359 10358 10357 10356 10354 10352 10351
10447 10448 10448 10449 10449 10450 10450 10451 10451 10452 10452 10451 10451 10451 10451 10450 10450 10450 10449 10448 10447 10447 10446 10445 10445 10444 10443 10441 10440 10439 10438 10437 10435 10433 10432 10430 10428 10426 10424 10423 10422 10421 10419 10417 10416 10415 10413 10411 10409 10408 10407 10405 10403 10401 10399 10398 10397 10396 10396 10395 10394 10392 10390 10388 10387 10386 10383 10379 10376 10373 10370 10367 10366 10364 10360 10356 10352 10349 10347 10346 10344 10342 10339 10337 10335
10437 10437 10438 10439 10439 10440 10440 10440 10441 10441 10441 10441 10440 10440 10440 10440 10439 10439 10438 10437 10436 10435 10434 10434 10433 10432 10431 10429 10428 10427 10426 10425 10423 10422 10420 10418 10416 10414 10412 10411 10409 10408 10407 10406 10405 10404 10402 10400 10398 10397 10395 10394 10392 10390 10388 10386 10385 10384 10384 10383 10382 10381 10379 10377 10374 10372 10370 10368 10365 10361 10358 10355 10353 10350 10346 10342 10339 10335 10332 10330 10329 10327 10325 10322 10320
10427 10427 10428 10428 10429 10429 10430 10430 10430 10430 10429 10429 10429 10429 10429 10428 10428 10427 10426 10425 10424 10423 10422 10422 10421 10420 10419 10417 10416 10414 10413 10412 10410 10409 10407 10406 10404 10402 10400 10398 10396 10395 10393 10392 10391 10390 10389 10388 10386 10384 10383 10381 10380 10378 10377 10374 10372 10371 10370 10370 10369 10368 10366 10364 10361 10358 10355 10352 10349 10347 10344 10341 10338 10334 10331 10327 10324 10320 10317 10314 10312 10311 10310 10308 10306
10417 10417 10417 10418 10418 10419 10419 10419 10419 10418 10418 10418 10417 10417 10416 10416 10416 10415 10414 10413 10412 10411 10410 10409 10408 10407 10406 10405 10403 10402 10400 10398 10397 10396 10394 10393 10391 10389 10387 10385 10383 10382 10380 10378 10376 10375 10374 10372 10371 10369 10368 10367 10365 10364 10363 10360 10357 10356 10355 10354 10354 10353 10351 10349 10346 10343 10340 10337 10334 10331 10327 10324 10322 10320 10317 10314 10311 10308 10304 10301 10300 10299 10298 10296 10294
10406 10406 10406 10407 10407 10407 10407 10407 10407 10407 10407 10406 10406 10405 10404 10403 10403 10402 10402 10400 10399 10398 10397 10396 10395 10394 10393 10391 10390 10388 10387 10385 10384 10382 10381 10379 10377 10375 10373 10371 10369 10368 10365 10363 10361 10359 10357 10356 10354 10353 10351 10351 10350 10349 10347 10344 10341 10340 10339 10338 10337 10336 10334 10332 10329 10325 10322 10320 10317 10314 10312 10309 10307 10305 10303 10301 10299 10296 10293 10291 10290 10289 10288 10286 10284
10395 10395 10395 10395 10395 10395 10395 10395 10395 10395 10395 10395 10394 10393 10392 10392 10391 10390 10389 10388 10387 10386 10385 10384 10383 10381 10379 10377 10376 10374 10372 10371 10369 10368 10367 10365 10363 10361 10358 10356 10354 10352 10350 10348 10346 10344 10342 10340 10338 10337 10336 10335 10335 10333 10331 10328 10326 10325 10323 10321 10320 10319 10316 10313 10310 10306 10304 10302 10300 10298 10295 10293 10291 10291 10291 10289 10287 10284 10281 10280 10279 10278 10276 10275 10273
10384 10384 10383 10383 10383 10383 10383 10383 10383 10383 10382 10382 10382 10381 10381 10380 10379 10378 10377 10376 10375 10374 10373 10372 10370 10368 10366 10363 10361 10360 10358 10357 10355 10354 10352 10350 10348 10346 10344 10342 10339 10337 10334 10332 10330 10328 10326 10324 10322 10321 10319 10318 10318 10316 10313 10310 10309 10308 10307 10304 10303 10302 10299 10295 10292 10289 10286 10283 10281 10280 10278 10276 10277 10279 10279 10276 10274 10272 10270 10270 10269 10268 10265 10263 10260
10372 10372 10371 10371 10371 10371 10371 10370 10370 10370 10369 10369 10369 10368 10368 10367 10366 10365 10365 10364 10363 10362 10361 10360 10358 10355 10352 10350 10347 10345 10343 10342 10341 10339 10337 10335 10332 10330 10328 10327 10325 10322 10319 10316 10314 10312 10310 10309 10307 10305 10303 10301 10300 10299 10297 10294 10292 10291 10290 10288 10286 10284 10282 10279 10275 10273 10270 10267 10264 10262 10262 10263 10265 10266 10265 10262 10260 10259 10259 10258 10258 10257 10255 10252 10249
10359 10359 10359 10359 10359 10358 10358 10358 10357 10357 10356 10356 10355 10354 10353 10353 10352 10352 10351 10351 10350 10348 10347 10346 10345 10343 10341 10338 10335 10332 10329 10328 10326 10324 10322 10320 10317 10315 10313 10311 10308 10306 10304 10301 10299 10297 10295 10293 10291 10289 10287 10285 10284 10282 10281 10278 10276 10275 10274 10273 10271 10268 10265 10263 10260 10257 10255 10252 10249 10248 10249 10251 10253 10252 10250 10248 10248 10248 10247 10246 10245 10244 10243 10241 10239
10347 10347 10347 10346 10346 10345 10345 10344 10344 10343 10343 10342 10341 10340 10339 10338 10337 10337 10337 10336 10335 10334 10332 10331 10330 10329 10328 10326 10324 10321 10318 10315 10313 10311 10309 10306 10303 10301 10298 10296 10294 10291 10289 10287 10285 10283 10280 10278 10277 10275 10273 10270 10268 10266 10264 10262 10260 10260 10260 10259 10258 10254 10251 10248 10246 10243 10240 10238 10237 10237 10238 10239 10239 10238 10235 10235 10236 10235 10234 10233 10232 10231 10231 10230 10229
10334 10334 10333 10333 10332 10332 10331 10330 10330 10329 10329 10328 10327 10326 10325 10324 10323 10322 10321 10320 10320 10319 10318 10316 10315 10314 10313 10312 10310 10307 10305 10303 10300 10298 10295 10293 10291 10288 10286 10283 10281 10279 10277 10274 10272 10269 10267 10265 10264 10262 10260 10257 10254 10251 10249 10247 10246 10246 10245 10245 10243 10241 10238 10235 10233 10230 10228 10227 10227 10227 10227 10227 10226 10225 10222 10222 10223 10223 10222 10221 10221 10220 10220 10220 10219
10321 10320 10320 10319 10319 10318 10317 10316 10316 10315 10315 10314 10313 10312 10311 10310 10309 10308 10307 10306 10305 10304 10303 10301 10300 10298 10297 10296 10294 10292 10291 10289 10287 10285 10282 10280 10278 10276 10273 10271 10268 10266 10264 10261 10259 10256 10254 10252 10251 10249 10246 10243 10240 10239 10237 10235 10233 10233 10233 10232 10231 10228 10226 10223 10220 10218 10217 10218 10219 10218 10216 10214 10213 10212 10211 10210 10211 10211 10211 10211 10211 10211 10210 10210 10209
10308 10308 10307 10306 10305 10304 10303 10303 10303 10302 10301 10300 10300 10299 10298 10297 10296 10295 10294 10292 10291 10290 10288 10287 10285 10283 10282 10281 10279 10277 10276 10274 10272 10271 10269 10267 10265 10263 10261 10258 10255 10253 10251 10248 10245 10243 10242 10241 10238 10235 10233 10231 10228 10227 10226 10224 10222 10221 10221 10221 10219 10217 10215 10212 10209 10208 10207 10208 10208 10207 10206 10203 10201 10201 10201 10200 10200 10200 10201 10201 10202 10201 10201 10201 10200
10296 10295 10294 10292 10291 10290 10290 10291 10290 10289 10289 10288 10287 10286 10286 10285 10283 10282 10281 10280 10278 10277 10275 10274 10272 10270 10268 10267 10265 10264 10262 10260 10258 10257 10256 10255 10253 10251 10249 10246 10243 10241 10239 10237 10234 10231 10230 10229 10227 10224 10222 10220 10218 10216 10215 10214 10213 10211 10210 10209 10208 10207 10205 10203 10200 10198 10197 10196 10196 10197 10196 10194 10193 10192 10191 10191 10190 10190 10191 10191 10191 10191 10191 10191 10190
10284 10282 10281 10279 10279 10279 10279 10278 10278 10277 10277 10276 10275 10274 10273 10272 10271 10270 10269 10267 10266 10264 10263 10261 10260 10258 10256 10255 10253 10252 10250 10248 10246 10245 10244 10243 10242 10240 10238 10236 10233 10230 10229 10227 10224 10221 10219 10219 10218 10215 10213 10211 10209 10206 10205 10204 10203 10202 10200 10199 10197 10197 10195 10193 10191 10189 10188 10187 10187 10187 10186 10185 10185 10184 10183 10183 10183 10182 10181 10181 10181 10181 10181 10181 10181
10271 10270 10268 10267 10267 10267 10267 10267 10266 10266 10266 10265 10264 10263 10261 10260 10259 10258 10257 10256 10254 10253 10251 10250 10249 10247 10245 10244 10242 10241 10239 10237 10236 10234 10233 10232 10231 10229 10228 10226 10223 10221 10219 10217 10215 10212 10210 10209 10208 10206 10204 10202 10200 10198 10196 10195 10193 10192 10191 10190 10188 10187 10186 10184 10182 10181 10180 10179 10178 10178 10177 10176 10175 10175 10175 10175 10174 10174 10173 10173 10173 10173 10173 10173 10173
10259 10258 10257 10256 10256 10257 10256 10256 10255 10255 10254 10253 10252 10251 10250 10248 10247 10247 10246 10244 10243 10242 10241 10240 10238 10237 10235 10234 10232 10231 10229 10228 10226 10224 10223 10222 10221 10220 10218 10216 10214 10212 10210 10208 10207 10204 10202 10200 10198 10197 10195 10193 10191 10189 10188 10187 10185 10184 10183 10181 10180 10178 10177 10176 10174 10173 10172 10171 10170 10169 10168 10167 10166 10166 10166 10166 10166 10165 10165 10165 10165 10166 10166 10166 10165
10248 10247 10247 10246 10247 10247 10246 10246 10245 10244 10243 10242 10242 10241 10239 10238 10237 10236 10235 10234 10233 10232 10231 10230 10229 10227 10226 10225 10223 10222 10221 10219 10218 10216 10214 10213 10212 10210 10209 10207 10205 10203 10201 10200 10198 10196 10194 10192 10190 10188 10186 10185 10184 10182 10180 10178 10177 10176 10175 10173 10172 10170 10169 10168 10167 10165 10164 10163 10162 10161 10160 10159 10158 10158 10157 10157 10157 10157 10157 10157 10158 10158 10158 10159 10158
10238 10238 10237 10238 10238 10238 10237 10236 10235 10234 10233 10233 10232 10231 10230 10228 10227 10227 10226 10225 10224 10223 10222 10220 10219 10218 10217 10216 10216 10214 10213 10212 10210 10208 10206 10204 10203 10201 10200 10199 10197 10195 10193 10191 10190 10188 10186 10184 10183 10181 10179 10177 10176 10175 10173 10171 10170 10169 10167 10166 10164 10163 10162 10161 10160 10159 10157 10156 10155 10154 10153 10152 10151 10150 10150 10150 10150 10150 10150 10150 10150 10151 10151 10152 10152
10229 10229 10229 10229 10229 10228 10227 10226 10226 10225 10224 10224 10223 10222 10221 10220 10219 10218 10217 10216 10215 10214 10213 10212 10211 10210 10209 10209 10208 10207 10206 10204 10202 10201 10199 10197 10195 10193 10192 10191 10189 10187 10185 10184 10182 10180 10178 10177 10176 10174 10173 10170 10169 10167 10166 10165 10163 10162 10160 10159 10157 10156 10155 10154 10153 10152 10151 10150 10149 10148 10147 10146 10145 10144 10144 10143 10143 10144 10144 10144 10144 10144 10145 10145 10146
10220 10220 10220 10220 10220 10219 10219 10218 10217 10216 10216 10215 10215 10214 10213 10212 10211 10210 10209 10208 10207 10206 10205 10204 10203 10202 10202 10201 10200 10199 10198 10196 10195 10193 10192 10190 10188 10186 10184 10183 10181 10180 10178 10177 10175 10173 10171 10170 10169 10168 10166 10164 10162 10161 10159 10158 10156 10155 10154 10152 10151 10150 10149 10148 10147 10146 10145 10144 10143 10142 10141 10140 10140 10139 10138 10138 10138 10138 10138 10138 10138 10139 10139 10139 10140
10211 10212 10212 10212 10212 10211 10210 10210 10209 10208 10208 10207 10207 10206 10206 10205 10204 10203 10202 10200 10199 10198 10197 10196 10196 10195 10195 10194 10193 10191 10190 10188 10187 10186 10185 10183 10182 10180 10178 10176 10174 10173 10172 10170 10169 10167 10165 10163 10162 10161 10160 10158 10156 10155 10153 10151 10150 10149 10148 10146 10145 10144 10143 10142 10141 10140 10139 10138 10137 10136 10135 10134 10134 10133 10133 10133 10133 10133 10133 10133 10133 10133 10134 10135 10135
10204 10204 10204 10204 10204 10203 10202 10202 10201 10200 10200 10200 10199 10199 10198 10197 10196 10195 10194 10193 10192 10191 10190 10189 10189 10188 10188 10187 10186 10184 10183 10181 10180 10179 10178 10176 10175 10173 10171 10170 10168 10167 10165 10164 10162 10161 10159 10158 10156 10155 10153 10152 10150 10149 10147 10146 10144 10143 10142 10140 10139 10138 10137 10136 10135 10134 10134 10133 10132 10131 10130 10129 10129 10128 10128 10128 10128 10128 10128 10128 10128 10129 10129 10130 10131